DW9439 Weather Reports


Display with metric or nautical units.
time (UTC)temp
F
wind
direction
speed
MPH
gust
MPH
rain 1hr
in
rain 24hr
in
rain mn
in
humidity
%
barometer
mb
20260902203154 98 223 15.0 26.0 0.00 0.00 0.00 22 1014.7
20260902202854 97 215 14.0 26.0 0.00 0.00 0.00 21 1014.7
20260902202556 98 222 13.0 22.0 0.00 0.00 0.00 21 1014.8
20260902202245 97 240 13.0 22.0 0.00 0.00 0.00 21 1014.7
20260902201935 98 221 12.0 22.0 0.00 0.00 0.00 20 1014.8
20260902201639 97 248 13.0 22.0 0.00 0.00 0.00 21 1014.8
20260902201332 97 248 13.0 22.0 0.00 0.00 0.00 24 1014.8
20260902201034 97 227 14.0 22.0 0.00 0.00 0.00 22 1015.0
20260902200727 97 229 13.0 22.0 0.00 0.00 0.00 22 1015.0
20260902200419 97 240 12.0 21.0 0.00 0.00 0.00 21 1015.0
20260902200121 98 223 12.0 21.0 0.00 0.00 0.00 22 1015.1
20260902195814 97 220 13.0 21.0 0.00 0.00 0.00 22 1015.0
20260902195511 97 220 13.0 21.0 0.00 0.00 0.00 23 1015.1
20260902195158 97 232 14.0 21.0 0.00 0.00 0.00 22 1015.0
20260902194853 97 204 13.0 21.0 0.00 0.00 0.00 22 1015.1
20260902194125 97 235 12.0 23.0 0.00 0.00 0.00 25 1015.1
20260902193814 97 252 12.0 23.0 0.00 0.00 0.00 23 1015.3
20260902193510 97 244 11.0 23.0 0.00 0.00 0.00 23 1015.3
20260902193157 96 231 13.0 23.0 0.00 0.00 0.00 25 1015.3
20260902192437 96 225 12.0 23.0 0.00 0.00 0.00 25 1015.4
20260902191719 96 253 11.0 19.0 0.00 0.00 0.00 26 1015.5
20260902191406 96 257 11.0 19.0 0.00 0.00 0.00 27 1015.6
20260902191055 96 244 11.0 20.0 0.00 0.00 0.00 27 1015.6
20260902190758 95 246 11.0 20.0 0.00 0.00 0.00 27 1015.6
20260902190446 95 241 11.0 20.0 0.00 0.00 0.00 27 1015.7
20260902190145 95 256 11.0 20.0 0.00 0.00 0.00 28 1015.6
20260902185841 96 234 11.0 20.0 0.00 0.00 0.00 28 1015.6
20260902185539 95 257 11.0 20.0 0.00 0.00 0.00 27 1015.7
20260902185237 96 243 11.0 20.0 0.00 0.00 0.00 28 1015.6
20260902184935 96 256 11.0 20.0 0.00 0.00 0.00 28 1015.8
20260902184630 95 238 11.0 20.0 0.00 0.00 0.00 27 1015.8
20260902184327 95 248 11.0 20.0 0.00 0.00 0.00 28 1015.9
20260902184020 95 235 10.0 19.0 0.00 0.00 0.00 29 1015.9
20260902183709 95 265 10.0 19.0 0.00 0.00 0.00 28 1015.9
20260902183356 95 231 11.0 19.0 0.00 0.00 0.00 27 1015.9
20260902183048 94 240 11.0 19.0 0.00 0.00 0.00 30 1016.0
20260902181913 94 264 10.0 18.0 0.00 0.00 0.00 29 1016.1
20260902181607 94 250 10.0 18.0 0.00 0.00 0.00 30 1016.1
20260902180829 93 221 10.0 18.0 0.00 0.00 0.00 33 1016.1
20260902180059 92 259 11.0 18.0 0.00 0.00 0.00 32 1016.1
20260902175749 93 257 11.0 18.0 0.00 0.00 0.00 34 1016.2
20260902175440 93 240 11.0 18.0 0.00 0.00 0.00 32 1016.2
20260902175141 92 261 11.0 18.0 0.00 0.00 0.00 33 1016.2
20260902174829 92 238 11.0 18.0 0.00 0.00 0.00 33 1016.3
20260902174523 92 241 11.0 19.0 0.00 0.00 0.00 34 1016.3
20260902174215 92 250 10.0 19.0 0.00 0.00 0.00 34 1016.3
20260902173907 92 219 10.0 19.0 0.00 0.00 0.00 36 1016.4
20260902173602 92 221 10.0 19.0 0.00 0.00 0.00 35 1016.3
20260902173254 91 235 11.0 19.0 0.00 0.00 0.00 37 1016.4
20260902172949 91 248 10.0 19.0 0.00 0.00 0.00 37 1016.5
20260902172228 90 234 9.0 17.0 0.00 0.00 0.00 39 1016.4
20260902171921 89 271 10.0 17.0 0.00 0.00 0.00 39 1016.5
20260902171612 89 251 10.0 17.0 0.00 0.00 0.00 39 1016.6
20260902171307 89 249 9.0 15.0 0.00 0.00 0.00 40 1016.6
20260902171002 89 237 9.0 15.0 0.00 0.00 0.00 39 1016.5
20260902170651 89 259 8.0 14.0 0.00 0.00 0.00 41 1016.5
20260902170337 88 262 8.0 14.0 0.00 0.00 0.00 40 1016.6
20260902170035 88 261 8.0 14.0 0.00 0.00 0.00 41 1016.7
20260902165729 88 262 9.0 14.0 0.00 0.00 0.00 41 1016.7
20260902165417 87 264 9.0 15.0 0.00 0.00 0.00 43 1016.6
20260902165114 87 265 9.0 15.0 0.00 0.00 0.00 42 1016.6
20260902164814 87 261 9.0 15.0 0.00 0.00 0.00 44 1016.7
20260902164509 87 267 9.0 15.0 0.00 0.00 0.00 43 1016.7
20260902164210 87 263 10.0 15.0 0.00 0.00 0.00 45 1016.7
20260902163900 86 267 10.0 15.0 0.00 0.00 0.00 44 1016.7
20260902163553 86 272 10.0 15.0 0.00 0.00 0.00 44 1016.8
20260902163254 87 264 9.0 15.0 0.00 0.00 0.00 44 1016.8
20260902162949 86 258 9.0 15.0 0.00 0.00 0.00 44 1016.7
20260902162228 85 261 10.0 17.0 0.00 0.00 0.00 45 1016.7
20260902160155 85 246 10.0 14.0 0.00 0.00 0.00 47 1016.7
20260902155846 84 252 10.0 15.0 0.00 0.00 0.00 46 1016.7
20260902155548 84 256 10.0 15.0 0.00 0.00 0.00 48 1016.7
20260902155237 84 267 10.0 15.0 0.00 0.00 0.00 48 1016.7
20260902154924 84 258 10.0 15.0 0.00 0.00 0.00 47 1016.8
20260902154156 83 267 10.0 15.0 0.00 0.00 0.00 48 1016.7
20260902153854 83 255 9.0 15.0 0.00 0.00 0.00 48 1016.7
20260902153122 82 257 9.0 14.0 0.00 0.00 0.00 50 1016.5
20260902152825 82 251 9.0 14.0 0.00 0.00 0.00 50 1016.5
20260902152529 82 248 9.0 14.0 0.00 0.00 0.00 51 1016.5
20260902152220 82 248 9.0 14.0 0.00 0.00 0.00 51 1016.5
20260902151911 81 244 10.0 14.0 0.00 0.00 0.00 51 1016.6
20260902151613 81 242 10.0 14.0 0.00 0.00 0.00 52 1016.5
20260902151315 81 246 9.0 14.0 0.00 0.00 0.00 52 1016.6
20260902151006 81 246 9.0 14.0 0.00 0.00 0.00 53 1016.5
20260902150234 80 255 9.0 14.0 0.00 0.00 0.00 55 1016.5
20260902145928 80 249 9.0 14.0 0.00 0.00 0.00 54 1016.5
20260902145629 79 249 9.0 14.0 0.00 0.00 0.00 55 1016.5
20260902145315 79 244 8.0 13.0 0.00 0.00 0.00 58 1016.5
20260902144557 78 223 8.0 13.0 0.00 0.00 0.00 61 1016.5
20260902144300 77 222 8.0 13.0 0.00 0.00 0.00 64 1016.7
20260902143529 76 224 8.0 13.0 0.00 0.00 0.00 65 1016.8
20260902143222 76 224 8.0 13.0 0.00 0.00 0.00 66 1016.8
20260902142911 75 224 8.0 13.0 0.00 0.00 0.00 66 1016.8
20260902142608 75 217 8.0 12.0 0.00 0.00 0.00 67 1016.8
20260902142307 75 217 8.0 12.0 0.00 0.00 0.00 67 1016.9
20260902142007 74 217 8.0 12.0 0.00 0.00 0.00 68 1016.8
20260902141656 74 216 8.0 11.0 0.00 0.00 0.00 69 1016.8
20260902141354 73 216 8.0 11.0 0.00 0.00 0.00 70 1016.8
20260902141043 73 216 8.0 11.0 0.00 0.00 0.00 71 1016.7
20260902140737 72 215 7.0 13.0 0.00 0.00 0.00 72 1016.8
20260902140438 72 215 8.0 13.0 0.00 0.00 0.00 73 1016.8
20260902140128 72 215 8.0 13.0 0.00 0.00 0.00 73 1016.8
20260902135405 71 211 8.0 13.0 0.00 0.00 0.00 75 1016.9
20260902135053 70 211 8.0 13.0 0.00 0.00 0.00 75 1016.8
20260902134739 70 199 7.0 11.0 0.00 0.00 0.00 77 1016.8
20260902134428 70 194 7.0 10.0 0.00 0.00 0.00 78 1016.8
20260902134132 69 193 7.0 10.0 0.00 0.00 0.00 79 1016.8
20260902133407 68 192 6.0 9.0 0.00 0.00 0.00 81 1016.8
20260902133100 68 192 6.0 9.0 0.00 0.00 0.00 81 1016.8
20260902132753 67 192 6.0 9.0 0.00 0.00 0.00 82 1016.9
20260902132449 67 192 6.0 9.0 0.00 0.00 0.00 82 1016.8
20260902132146 67 192 6.0 9.0 0.00 0.00 0.00 83 1016.9
20260902131833 67 192 6.0 9.0 0.00 0.00 0.00 83 1016.9
20260902131102 65 192 5.0 8.0 0.00 0.00 0.00 85 1016.9
20260902130751 65 192 5.0 8.0 0.00 0.00 0.00 86 1016.9
20260902130441 64 192 4.0 7.0 0.00 0.00 0.00 87 1016.9
20260902130129 64 192 4.0 6.0 0.00 0.00 0.00 87 1016.8
20260902125408 63 192 3.0 5.0 0.00 0.00 0.00 88 1016.7
20260902125103 63 192 4.0 5.0 0.00 0.00 0.00 88 1016.8
20260902124807 63 192 4.0 7.0 0.00 0.00 0.00 88 1016.7
20260902124510 62 192 4.0 7.0 0.00 0.00 0.00 88 1016.7
20260902124201 62 192 5.0 7.0 0.00 0.00 0.00 88 1016.7
20260902123015 62 192 6.0 9.0 0.00 0.00 0.00 88 1016.8
20260902122713 62 192 6.0 9.0 0.00 0.00 0.00 88 1016.8
20260902121938 62 192 7.0 8.0 0.00 0.00 0.00 87 1016.7
20260902121630 62 192 7.0 8.0 0.00 0.00 0.00 87 1016.6
20260902121325 62 191 6.0 8.0 0.00 0.00 0.00 87 1016.7
20260902121026 62 192 6.0 8.0 0.00 0.00 0.00 87 1016.7
20260902120714 62 192 5.0 7.0 0.00 0.00 0.00 86 1016.6
20260902120412 62 192 5.0 7.0 0.00 0.00 0.00 86 1016.5
20260902120108 63 192 5.0 7.0 0.00 0.00 0.00 86 1016.5
20260902115801 63 192 5.0 7.0 0.00 0.00 0.00 86 1016.6
20260902115457 63 192 5.0 7.0 0.00 0.00 0.00 86 1016.5
20260902115143 63 192 5.0 9.0 0.00 0.00 0.00 86 1016.6
20260902114834 63 192 6.0 9.0 0.00 0.00 0.00 86 1016.5
20260902114521 63 192 6.0 9.0 0.00 0.00 0.00 86 1016.6
20260902114213 63 192 7.0 9.0 0.00 0.00 0.00 87 1016.5
20260902113901 63 192 7.0 9.0 0.00 0.00 0.00 87 1016.4
20260902113557 63 192 6.0 9.0 0.00 0.00 0.00 87 1016.4
20260902112359 63 192 6.0 8.0 0.00 0.00 0.00 87 1016.5
20260902111626 62 192 5.0 7.0 0.00 0.00 0.00 87 1016.6
20260902111314 62 192 4.0 6.0 0.00 0.00 0.00 86 1016.7
20260902111005 63 192 4.0 6.0 0.00 0.00 0.00 86 1016.7
20260902110701 63 192 4.0 6.0 0.00 0.00 0.00 87 1016.6
20260902105950 63 192 5.0 6.0 0.00 0.00 0.00 87 1016.7
20260902105642 63 192 5.0 6.0 0.00 0.00 0.00 87 1016.7
20260902105337 63 192 5.0 6.0 0.00 0.00 0.00 87 1016.6
20260902105024 63 192 4.0 6.0 0.00 0.00 0.00 87 1016.6
20260902104716 63 192 4.0 6.0 0.00 0.00 0.00 87 1016.7
20260902104404 63 192 4.0 6.0 0.00 0.00 0.00 87 1016.7
20260902104053 62 192 4.0 6.0 0.00 0.00 0.00 87 1016.7
20260902103755 62 192 4.0 6.0 0.00 0.00 0.00 87 1016.8
20260902103028 62 192 4.0 6.0 0.00 0.00 0.00 87 1016.8
20260902102716 62 192 5.0 6.0 0.00 0.00 0.00 86 1016.7
20260902102410 62 192 5.0 6.0 0.00 0.00 0.00 86 1016.8
20260902102111 62 192 5.0 6.0 0.00 0.00 0.00 86 1016.8
20260902101758 63 192 4.0 6.0 0.00 0.00 0.00 85 1016.8
20260902101458 63 192 3.0 6.0 0.00 0.00 0.00 85 1016.9
20260902101152 63 192 3.0 5.0 0.00 0.00 0.00 85 1016.9
20260902100007 63 192 4.0 6.0 0.00 0.00 0.00 85 1016.8
20260902095233 63 192 5.0 6.0 0.00 0.00 0.00 85 1016.9
20260902094458 64 192 6.0 8.0 0.00 0.00 0.00 85 1016.8
20260902094151 64 192 6.0 8.0 0.00 0.00 0.00 85 1016.8
20260902093843 64 192 6.0 8.0 0.00 0.00 0.00 85 1016.7
20260902093531 64 192 6.0 8.0 0.00 0.00 0.00 85 1016.8
20260902093233 64 192 6.0 8.0 0.00 0.00 0.00 85 1016.7
20260902092928 64 192 6.0 8.0 0.00 0.00 0.00 86 1016.7
20260902092624 63 192 6.0 8.0 0.00 0.00 0.00 86 1016.8
20260902092310 63 192 6.0 8.0 0.00 0.00 0.00 86 1016.9
20260902092005 63 192 5.0 7.0 0.00 0.00 0.00 86 1016.8
20260902091652 63 192 5.0 7.0 0.00 0.00 0.00 86 1016.8
20260902091354 63 192 5.0 7.0 0.00 0.00 0.00 86 1016.7
20260902091046 63 192 5.0 7.0 0.00 0.00 0.00 85 1016.8
20260902090735 63 192 5.0 7.0 0.00 0.00 0.00 85 1016.9
20260902090422 63 192 5.0 7.0 0.00 0.00 0.00 85 1016.9
20260902085650 63 192 4.0 5.0 0.00 0.00 0.00 84 1017.0
20260902085353 63 192 4.0 5.0 0.00 0.00 0.00 84 1017.0
20260902085054 63 192 4.0 5.0 0.00 0.00 0.00 83 1017.1
20260902084753 63 192 4.0 5.0 0.00 0.00 0.00 83 1016.9
20260902084448 64 192 4.0 5.0 0.00 0.00 0.00 83 1017.0
20260902084135 64 192 4.0 5.0 0.00 0.00 0.00 83 1016.9
20260902083833 64 192 4.0 5.0 0.00 0.00 0.00 83 1016.9
20260902083525 64 192 4.0 5.0 0.00 0.00 0.00 83 1016.9
20260902083217 64 192 3.0 5.0 0.00 0.00 0.00 82 1016.8
20260902082905 64 192 3.0 5.0 0.00 0.00 0.00 82 1016.9
20260902082558 64 192 3.0 5.0 0.00 0.00 0.00 82 1016.9
20260902082256 64 192 3.0 5.0 0.00 0.00 0.00 82 1016.9
20260902081958 64 192 3.0 5.0 0.00 0.00 0.00 82 1016.9
20260902081657 64 192 3.0 4.0 0.00 0.00 0.00 81 1016.9
20260902081344 64 192 3.0 5.0 0.00 0.00 0.00 81 1016.8
20260902080634 65 192 3.0 5.0 0.00 0.00 0.00 81 1017.0
20260902080324 65 192 3.0 5.0 0.00 0.00 0.00 80 1017.0
20260902080016 65 192 3.0 5.0 0.00 0.00 0.00 80 1017.1
20260902075705 65 192 3.0 5.0 0.00 0.00 0.00 80 1017.0
20260902074937 65 192 4.0 7.0 0.00 0.00 0.00 80 1017.1
20260902074632 65 192 5.0 7.0 0.00 0.00 0.00 79 1017.1
20260902073858 66 192 5.0 7.0 0.00 0.00 0.00 78 1017.2
20260902073558 66 192 4.0 8.0 0.00 0.00 0.00 78 1017.2
20260902073259 66 192 4.0 8.0 0.00 0.00 0.00 78 1017.1
20260902072946 66 192 5.0 8.0 0.00 0.00 0.00 77 1017.2
20260902072642 66 192 5.0 8.0 0.00 0.00 0.00 77 1017.2
20260902072329 66 192 6.0 8.0 0.00 0.00 0.00 78 1017.2
20260902071604 66 192 5.0 7.0 0.00 0.00 0.00 78 1017.1
20260902071256 66 192 5.0 7.0 0.00 0.00 0.00 78 1017.1
20260902070536 66 192 4.0 6.0 0.00 0.00 0.00 78 1017.2
20260902065810 65 192 4.0 6.0 0.00 0.00 0.00 78 1017.2
20260902065507 65 192 4.0 5.0 0.00 0.00 0.00 78 1017.1
20260902064752 66 192 3.0 5.0 0.00 0.00 0.00 77 1017.1
20260902064439 66 192 3.0 5.0 0.00 0.00 0.00 77 1017.1
20260902064126 66 192 4.0 5.0 0.00 0.00 0.00 77 1017.1
20260902063827 66 192 4.0 5.0 0.00 0.00 0.00 77 1017.1
20260902063523 66 192 4.0 7.0 0.00 0.00 0.00 76 1017.3
20260902063212 67 192 4.0 7.0 0.00 0.00 0.00 76 1017.2
20260902062916 67 192 5.0 7.0 0.00 0.00 0.00 75 1017.2
20260902062612 67 192 5.0 7.0 0.00 0.00 0.00 76 1017.3
20260902062305 67 192 5.0 7.0 0.00 0.00 0.00 76 1017.1
20260902062004 66 192 5.0 7.0 0.00 0.00 0.00 77 1017.1
20260902061704 66 192 5.0 7.0 0.00 0.00 0.00 79 1017.0
20260902061353 65 192 4.0 6.0 0.00 0.00 0.00 80 1017.1
20260902061042 64 192 4.0 6.0 0.00 0.00 0.00 79 1017.1
20260902060741 64 192 4.0 6.0 0.00 0.00 0.00 77 1017.2
20260902055552 65 192 1.0 4.0 0.00 0.00 0.00 75 1017.2
20260902055244 66 192 0.0 2.0 0.00 0.00 0.00 75 1017.0
20260902054941 66 192 0.0 1.0 0.00 0.00 0.00 75 1017.0
20260902054643 66 192 0.0 1.0 0.00 0.00 0.00 74 1016.9
20260902053930 66 192 0.0 0.0 0.00 0.00 0.00 74 1016.8
20260902053632 67 192 0.0 1.0 0.00 0.00 0.00 74 1016.7
20260902053328 67 192 0.0 1.0 0.00 0.00 0.00 74 1016.7
20260902052611 67 192 0.0 1.0 0.00 0.00 0.00 75 1016.6
20260902051440 67 192 0.0 0.0 0.00 0.00 0.00 73 1016.7
20260902051130 67 192 0.0 0.0 0.00 0.00 0.00 73 1016.7
20260902050815 67 192 0.0 0.0 0.00 0.00 0.00 73 1016.6
20260902050515 67 192 0.0 1.0 0.00 0.00 0.00 73 1016.6
20260902050204 68 192 0.0 0.0 0.00 0.00 0.00 73 1016.6
20260902045858 68 192 0.0 0.0 0.00 0.00 0.00 72 1016.7
20260902045601 68 192 1.0 3.0 0.00 0.00 0.00 72 1016.6
20260902045300 68 192 1.0 3.0 0.00 0.00 0.00 72 1016.6
20260902044952 68 192 1.0 3.0 0.00 0.00 0.00 73 1016.6
20260902044648 68 192 1.0 2.0 0.00 0.00 0.00 73 1016.7
20260902044342 68 192 1.0 2.0 0.00 0.00 0.00 73 1016.7
20260902044044 68 192 1.0 2.0 0.00 0.00 0.00 73 1016.7
20260902043741 68 192 1.0 3.0 0.00 0.00 0.00 72 1016.8
20260902043437 68 192 1.0 3.0 0.00 0.00 0.00 72 1016.9
20260902043131 68 192 1.0 3.0 0.00 0.00 0.00 72 1016.9
20260902042819 68 192 1.0 3.0 0.00 0.00 0.00 72 1016.9
20260902042101 69 192 1.0 3.0 0.00 0.00 0.00 71 1016.9
20260902041752 69 192 1.0 5.0 0.00 0.00 0.00 71 1017.0
20260902041030 70 192 2.0 5.0 0.00 0.00 0.00 70 1017.1
20260902040254 70 192 4.0 6.0 0.00 0.00 0.00 70 1017.3
20260902035536 70 192 4.0 7.0 0.00 0.00 0.00 71 1017.4
20260902035232 70 192 3.0 7.0 0.00 0.00 0.00 71 1017.3
20260902034921 70 192 3.0 7.0 0.00 0.00 0.00 71 1017.4
20260902034622 70 192 4.0 7.0 0.00 0.00 0.00 71 1017.4
20260902033902 69 192 4.0 7.0 0.00 0.00 0.00 72 1017.5
20260902033124 70 192 3.0 6.0 0.00 0.00 0.00 72 1017.6
20260902032826 70 192 2.0 6.0 0.00 0.00 0.00 70 1017.5
20260902032524 70 192 2.0 5.0 0.00 0.00 0.00 69 1017.3
20260902032210 71 192 1.0 3.0 0.00 0.00 0.00 68 1016.8
20260902031908 71 192 1.0 3.0 0.00 0.00 0.00 68 1016.8
20260902031610 71 192 1.0 5.0 0.00 0.00 0.00 67 1016.8
20260902031304 71 192 1.0 5.0 0.00 0.00 0.00 66 1016.8
20260902031007 72 192 1.0 5.0 0.00 0.00 0.00 65 1016.7
20260902030710 72 192 1.0 5.0 0.00 0.00 0.00 65 1016.6
20260902030404 72 192 3.0 10.0 0.00 0.00 0.00 65 1016.5
20260902030051 72 192 5.0 10.0 0.00 0.00 0.00 64 1016.6
20260902025745 73 192 6.0 10.0 0.00 0.00 0.00 64 1016.6
20260902025449 73 192 6.0 10.0 0.00 0.00 0.00 63 1016.6
20260902025153 73 192 7.0 10.0 0.00 0.00 0.00 63 1016.6
20260902024852 73 191 6.0 10.0 0.00 0.00 0.00 62 1016.6
20260902024550 74 190 6.0 9.0 0.00 0.00 0.00 61 1016.6
20260902024249 74 190 5.0 8.0 0.00 0.00 0.00 61 1016.5
20260902023939 74 189 5.0 8.0 0.00 0.00 0.00 60 1016.5
20260902023637 74 189 5.0 7.0 0.00 0.00 0.00 60 1016.5
20260902022449 73 189 5.0 8.0 0.00 0.00 0.00 60 1016.3
20260902022139 74 188 5.0 8.0 0.00 0.00 0.00 59 1016.2
20260902021827 74 189 5.0 11.0 0.00 0.00 0.00 59 1016.1
20260902021530 74 188 6.0 11.0 0.00 0.00 0.00 59 1016.2
20260902021217 74 189 5.0 11.0 0.00 0.00 0.00 58 1016.0
20260902020918 74 189 6.0 11.0 0.00 0.00 0.00 58 1016.1
20260902020611 75 189 7.0 11.0 0.00 0.00 0.00 57 1016.0
20260902020301 75 189 7.0 11.0 0.00 0.00 0.00 57 1015.9
20260902015948 75 188 7.0 11.0 0.00 0.00 0.00 56 1015.8
20260902015642 75 186 7.0 10.0 0.00 0.00 0.00 56 1015.8
20260902015341 75 186 7.0 10.0 0.00 0.00 0.00 55 1015.8
20260902014624 75 184 7.0 10.0 0.00 0.00 0.00 56 1015.6
20260902014313 76 184 7.0 10.0 0.00 0.00 0.00 56 1015.7
20260902014015 76 184 7.0 10.0 0.00 0.00 0.00 56 1015.6
20260902013708 76 184 7.0 12.0 0.00 0.00 0.00 56 1015.7
20260902013404 76 184 7.0 12.0 0.00 0.00 0.00 57 1015.7
20260902013105 76 184 7.0 12.0 0.00 0.00 0.00 57 1015.6
20260902012752 76 184 8.0 15.0 0.00 0.00 0.00 57 1015.7
20260902012034 77 184 9.0 15.0 0.00 0.00 0.00 56 1015.7
20260902011302 77 185 10.0 17.0 0.00 0.00 0.00 56 1015.8
20260902011002 77 184 9.0 17.0 0.00 0.00 0.00 56 1015.8
20260902010702 78 182 10.0 17.0 0.00 0.00 0.00 56 1015.8
20260902010350 78 182 11.0 17.0 0.00 0.00 0.00 56 1016.0
20260902010039 78 184 11.0 17.0 0.00 0.00 0.00 56 1016.0
20260902005729 78 185 11.0 15.0 0.00 0.00 0.00 56 1015.9
20260902005002 79 191 11.0 19.0 0.00 0.00 0.00 56 1016.0
20260902004702 79 193 11.0 19.0 0.00 0.00 0.00 57 1015.9
20260902004405 79 198 12.0 19.0 0.00 0.00 0.00 58 1016.1
20260902004057 79 207 12.0 19.0 0.00 0.00 0.00 58 1016.2
20260902003751 79 195 13.0 20.0 0.00 0.00 0.00 58 1016.3
20260902003439 80 223 14.0 20.0 0.00 0.00 0.00 58 1016.5
20260902003141 80 215 14.0 20.0 0.00 0.00 0.00 56 1016.4
20260902002833 80 217 14.0 20.0 0.00 0.00 0.00 55 1016.4
20260902002530 81 225 13.0 20.0 0.00 0.00 0.00 53 1016.3
20260902001810 81 223 11.0 17.0 0.00 0.00 0.00 53 1016.3
20260902001512 81 210 11.0 15.0 0.00 0.00 0.00 53 1016.3
20260902000333 80 216 11.0 20.0 0.00 0.00 0.00 53 1016.2
20260901235558 79 212 13.0 20.0 0.00 0.00 0.00 56 1016.2
20260901235307 79 213 14.0 20.0 0.00 0.00 0.00 57 1016.2
20260901235000 79 213 14.0 19.0 0.00 0.00 0.00 57 1016.1
20260901234704 79 211 12.0 19.0 0.00 0.00 0.00 56 1015.9
20260901234357 78 207 10.0 19.0 0.00 0.00 0.00 57 1015.9
20260901233628 76 210 12.0 29.0 0.00 0.00 0.00 62 1016.2
20260901233322 76 211 14.0 29.0 0.00 0.00 0.00 62 1016.1
20260901233025 76 211 16.0 29.0 0.00 0.00 0.00 64 1016.2
20260901232711 77 211 16.0 32.0 0.00 0.00 0.00 63 1016.3
20260901232405 77 227 16.0 32.0 0.00 0.00 0.00 61 1016.4
20260901232056 78 220 16.0 32.0 0.00 0.00 0.00 62 1016.4
20260901231751 79 264 17.0 32.0 0.00 0.00 0.00 58 1016.3
20260901231448 83 246 15.0 32.0 0.00 0.00 0.00 51 1016.2
20260901231141 88 227 13.0 32.0 0.00 0.00 0.00 42 1016.1
20260901230421 91 206 11.0 15.0 0.00 0.00 0.00 33 1015.5
20260901230108 92 212 11.0 15.0 0.00 0.00 0.00 32 1015.4
20260901225806 92 211 10.0 15.0 0.00 0.00 0.00 32 1015.4
20260901225500 92 210 9.0 15.0 0.00 0.00 0.00 33 1015.4
20260901225149 92 209 9.0 15.0 0.00 0.00 0.00 33 1015.3
20260901224842 92 207 10.0 18.0 0.00 0.00 0.00 32 1015.1
20260901224536 92 201 11.0 18.0 0.00 0.00 0.00 32 1015.0
20260901224239 92 205 11.0 18.0 0.00 0.00 0.00 32 1015.1
20260901223939 92 201 11.0 18.0 0.00 0.00 0.00 32 1015.1
20260901223635 92 213 11.0 18.0 0.00 0.00 0.00 33 1015.1
20260901222908 93 200 9.0 18.0 0.00 0.00 0.00 32 1015.2
20260901222555 93 214 10.0 18.0 0.00 0.00 0.00 32 1015.3
20260901222247 93 217 10.0 18.0 0.00 0.00 0.00 32 1015.4
20260901221943 93 220 10.0 18.0 0.00 0.00 0.00 32 1015.4
20260901221644 93 211 9.0 13.0 0.00 0.00 0.00 31 1015.4
20260901221332 93 209 9.0 13.0 0.00 0.00 0.00 32 1015.5
20260901221020 93 192 10.0 18.0 0.00 0.00 0.00 32 1015.5
20260901220715 93 194 11.0 18.0 0.00 0.00 0.00 31 1015.5
20260901220408 93 202 11.0 18.0 0.00 0.00 0.00 31 1015.5
20260901220111 93 195 11.0 21.0 0.00 0.00 0.00 31 1015.6
20260901215351 93 186 9.0 21.0 0.00 0.00 0.00 31 1015.5
20260901215046 93 190 11.0 21.0 0.00 0.00 0.00 31 1015.5
20260901214315 94 208 11.0 21.0 0.00 0.00 0.00 30 1015.7
20260901214009 94 205 10.0 18.0 0.00 0.00 0.00 30 1015.7
20260901213706 94 202 10.0 18.0 0.00 0.00 0.00 30 1015.7
20260901213357 94 205 9.0 24.0 0.00 0.00 0.00 30 1015.7
20260901213045 94 231 9.0 24.0 0.00 0.00 0.00 31 1015.7
20260901212314 96 202 10.0 24.0 0.00 0.00 0.00 29 1015.7
20260901212012 95 206 10.0 24.0 0.00 0.00 0.00 31 1015.7
20260901211708 95 200 10.0 24.0 0.00 0.00 0.00 29 1015.7
20260901211409 96 187 10.0 19.0 0.00 0.00 0.00 30 1015.8
20260901211059 96 182 11.0 19.0 0.00 0.00 0.00 29 1015.7
20260901210802 97 206 11.0 19.0 0.00 0.00 0.00 29 1015.8
20260901210501 97 202 11.0 22.0 0.00 0.00 0.00 29 1015.9
20260901210202 97 232 11.0 22.0 0.00 0.00 0.00 32 1015.8
20260901205449 96 195 11.0 22.0 0.00 0.00 0.00 29 1015.8
20260901205141 96 219 11.0 22.0 0.00 0.00 0.00 30 1015.8
20260901204840 95 205 10.0 22.0 0.00 0.00 0.00 30 1015.9
20260901204543 95 185 9.0 20.0 0.00 0.00 0.00 31 1015.9
20260901204237 95 193 7.0 20.0 0.00 0.00 0.00 32 1016.0
20260901203934 94 175 7.0 21.0 0.00 0.00 0.00 33 1016.0
20260901203629 94 182 8.0 21.0 0.00 0.00 0.00 32 1016.0